| time (UTC) | temp F | wind direction | speed knots | gust knots | rain 1hr in | rain 24hr in | rain mn in | humidity % | barometer mb |
| 20260502190004 | 73 | 86 | 8.7 | 14.8 | 0.00 | 1.22 | 0.01 | 49 | 1018.1 |
| 20260502184605 | 73 | 351 | 6.1 | 13.0 | 0.00 | 1.74 | 0.01 | 52 | 1018.1 |
| 20260502184502 | 73 | 335 | 5.2 | 14.8 | 0.00 | 1.74 | 0.01 | 52 | 1018.1 |
| 20260502183100 | 72 | 54 | 6.1 | 14.8 | 0.00 | 1.74 | 0.01 | 54 | 1018.3 |
| 20260502181558 | 72 | 353 | 4.3 | 16.5 | 0.00 | 1.74 | 0.01 | 56 | 1018.5 |
| 20260502163039 | 68 | 8 | 8.7 | 15.6 | 0.00 | 1.87 | 0.01 | 69 | 1019.1 |
| 20260502161537 | 67 | 49 | 6.1 | 13.0 | 0.00 | 1.87 | 0.01 | 73 | 1019.1 |
| 20260502151523 | 64 | 79 | 4.3 | 10.4 | 0.00 | 1.89 | 0.01 | 81 | 1018.9 |
| 20260502123043 | 54 | 323 | 1.7 | 6.1 | 0.00 | 2.08 | 0.01 | 95 | 1017.1 |
| 20260502121540 | 54 | 78 | 3.5 | 7.0 | 0.00 | 2.08 | 0.01 | 95 | 1016.7 |
| 20260502114536 | 53 | 36 | 2.6 | 7.8 | 0.00 | 2.09 | 0.01 | 95 | 1016.4 |
| 20260502113039 | 53 | 56 | 3.5 | 7.8 | 0.00 | 2.09 | 0.01 | 95 | 1016.3 |
| 20260502113005 | 53 | 16 | 2.6 | 7.8 | 0.00 | 2.09 | 0.01 | 95 | 1016.3 |
| 20260502111532 | 53 | 45 | 1.7 | 8.7 | 0.00 | 2.09 | 0.01 | 94 | 1016.1 |
| 20260502110035 | 52 | 53 | 2.6 | 8.7 | 0.00 | 2.09 | 0.01 | 94 | 1016.0 |
| 20260502104533 | 52 | 44 | 1.7 | 5.2 | 0.00 | 2.09 | 0.01 | 94 | 1015.8 |
| 20260502103026 | 53 | 59 | 3.5 | 7.8 | 0.00 | 2.09 | 0.01 | 94 | 1015.5 |
| 20260502101524 | 53 | 25 | 2.6 | 8.7 | 0.00 | 2.09 | 0.01 | 93 | 1015.4 |
| 20260502091521 | 54 | 64 | 6.1 | 10.4 | 0.00 | 2.10 | 0.01 | 92 | 1014.9 |
| 20260502071508 | 53 | 51 | 5.2 | 12.2 | 0.00 | 2.29 | 0.01 | 97 | 1014.9 |
| 20260502070006 | 53 | 59 | 4.3 | 10.4 | 0.00 | 2.29 | 0.01 | 97 | 1015.1 |
| 20260502064506 | 53 | 51 | 5.2 | 12.2 | 0.00 | 2.29 | 0.01 | 96 | 1015.2 |
| 20260502063002 | 53 | 47 | 5.2 | 10.4 | 0.00 | 2.29 | 0.01 | 97 | 1015.4 |
| 20260502061502 | 54 | 49 | 5.2 | 11.3 | 0.01 | 2.29 | 0.01 | 97 | 1015.5 |
| 20260502060059 | 54 | 81 | 4.3 | 11.3 | 0.01 | 2.29 | 0.01 | 97 | 1015.4 |
| 20260502054606 | 54 | 63 | 6.1 | 13.0 | 0.01 | 2.29 | 0.01 | 98 | 1015.3 |
| 20260502053053 | 54 | 89 | 4.3 | 11.3 | 0.02 | 2.29 | 0.01 | 98 | 1014.7 |
| 20260502051553 | 54 | 60 | 6.1 | 10.4 | 0.01 | 2.29 | 0.00 | 99 | 1014.4 |
| 20260502050049 | 54 | 354 | 3.5 | 11.3 | 0.01 | 2.29 | 0.00 | 100 | 1014.5 |
| 20260502044546 | 54 | 61 | 5.2 | 11.3 | 0.01 | 2.29 | 2.29 | 100 | 1014.2 |
| 20260502043058 | 54 | 65 | 5.2 | 12.2 | 0.00 | 2.27 | 2.27 | 100 | 1014.0 |
| 20260502041609 | 54 | 40 | 6.1 | 10.4 | 0.00 | 2.27 | 2.27 | 100 | 1014.1 |
| 20260502040051 | 54 | 50 | 4.3 | 12.2 | 0.01 | 2.27 | 2.27 | 100 | 1014.1 |
| 20260502033045 | 54 | 48 | 3.5 | 10.4 | 0.01 | 2.27 | 2.27 | 100 | 1014.2 |
| 20260502031537 | 54 | 34 | 5.2 | 10.4 | 0.01 | 2.27 | 2.27 | 100 | 1014.3 |
| 20260502030049 | 54 | 60 | 2.6 | 8.7 | 0.00 | 2.27 | 2.27 | 100 | 1013.9 |
| 20260502024532 | 54 | 67 | 4.3 | 12.2 | 0.00 | 2.27 | 2.27 | 100 | 1013.4 |
| 20260502023045 | 54 | 360 | 7.0 | 13.0 | 0.00 | 2.27 | 2.27 | 100 | 1012.8 |
| 20260502021528 | 55 | 49 | 5.2 | 11.3 | 0.00 | 2.27 | 2.27 | 100 | 1012.8 |
| 20260502020026 | 55 | 32 | 9.6 | 15.6 | 0.00 | 2.27 | 2.27 | 100 | 1011.7 |
| 20260502014529 | 55 | 74 | 7.0 | 11.3 | 0.00 | 2.27 | 2.27 | 100 | 1011.5 |
| 20260502013021 | 55 | 317 | 7.0 | 13.0 | 0.00 | 2.27 | 2.27 | 100 | 1011.6 |
| 20260502011519 | 56 | 58 | 7.8 | 14.8 | 0.00 | 2.27 | 2.27 | 100 | 1011.1 |
| 20260502010016 | 56 | 58 | 7.0 | 15.6 | 0.00 | 2.27 | 2.27 | 100 | 1010.8 |
| 20260502004513 | 56 | 40 | 6.1 | 15.6 | 0.01 | 2.27 | 2.27 | 100 | 1010.4 |
| 20260502003011 | 57 | 51 | 6.1 | 14.8 | 0.02 | 2.27 | 2.27 | 100 | 1010.0 |
| 20260502001510 | 58 | 69 | 4.3 | 11.3 | 0.13 | 2.27 | 2.27 | 100 | 1010.3 |
| 20260502000056 | 58 | 48 | 6.1 | 11.3 | 0.19 | 2.27 | 2.27 | 100 | 1010.1 |
| 20260501234636 | 57 | 34 | 7.0 | 12.2 | 0.24 | 2.25 | 2.25 | 100 | 1009.4 |
| 20260501231533 | 58 | 67 | 2.6 | 8.7 | 0.31 | 2.14 | 2.14 | 100 | 1011.9 |
| 20260501230114 | 58 | 26 | 2.6 | 7.0 | 0.38 | 2.08 | 2.08 | 100 | 1012.3 |
| 20260501224609 | 58 | 65 | 4.3 | 7.8 | 0.40 | 2.02 | 2.02 | 100 | 1012.2 |
| 20260501223102 | 58 | 41 | 1.7 | 3.5 | 0.39 | 1.92 | 1.92 | 100 | 1011.7 |
| 20260501221617 | 58 | 77 | 0.9 | 12.2 | 0.46 | 1.83 | 1.83 | 100 | 1011.9 |
| 20260501220104 | 58 | 67 | 4.3 | 7.0 | 0.44 | 1.70 | 1.70 | 100 | 1010.9 |
| 20260501214634 | 58 | 37 | 6.1 | 12.2 | 0.42 | 1.62 | 1.62 | 100 | 1010.3 |
| 20260501213031 | 58 | 60 | 0.0 | 8.7 | 0.35 | 1.53 | 1.53 | 100 | 1011.6 |
| 20260501211528 | 58 | 68 | 1.7 | 13.9 | 0.20 | 1.36 | 1.36 | 100 | 1011.2 |
| 20260501210027 | 58 | 79 | 5.2 | 13.9 | 0.11 | 1.26 | 1.26 | 100 | 1009.9 |
| 20260501201514 | 58 | 41 | 8.7 | 15.6 | 0.04 | 1.15 | 1.15 | 100 | 1010.1 |
| 20260501200011 | 59 | 67 | 6.1 | 13.9 | 0.07 | 1.14 | 1.14 | 100 | 1009.8 |
| 20260501194516 | 59 | 75 | 5.2 | 11.3 | 0.09 | 1.14 | 1.14 | 100 | 1010.8 |
| 20260501193059 | 59 | 59 | 6.1 | 11.3 | 0.19 | 1.13 | 1.13 | 100 | 1010.9 |
| 20260501191553 | 59 | 61 | 7.8 | 11.3 | 0.44 | 1.12 | 1.12 | 100 | 1011.0 |